This demonstration page uses our WeatherBlox Daily Observations layout. Learn more.

Left ArrowRight Arrow

39.51506, -84.39828

Hourly Observations for June 2, 2019

Temp ( °F °C ) Dew Point ( °F °C ) Humidity (%) Winds ( mph kmh ) Pressure ( in mb ) Visibility ( mi km ) Precip ( " mm )
12:15 am 00:15 Clear 66 19 62 16.7 87 87 WSW 5 7 29.78 1008 10 16 N/A
12:35 am 00:35 Clear with Nearby Thunderstorms 66 18.8 62 16.9 89 89 WSW 3 6 29.78 1008 10 16 N/A
12:55 am 00:55 Clear with Thunderstorms 67 19.7 63 17 85 85 N N/A 29.79 1009 10 16 N/A
1:15 am 01:15 Clear 67 19.5 63 17 86 86 N N/A 29.79 1009 10 16 N/A
1:35 am 01:35 Clear with Nearby Thunderstorms 65 18.3 63 17.2 93 93 SSW 3 6 29.78 1008 7 11 N/A
1:55 am 01:55 Clear with Thunderstorms 64 17.7 63 17 96 96 WSW 5 7 29.78 1008 10 16 N/A
2:15 am 02:15 Clear with Nearby Thunderstorms 65 18.5 63 17.3 93 93 SW 6 9 29.77 1008 10 16 N/A
2:35 am 02:35 Mostly Cloudy 65 18.6 63 17.1 91 91 WSW 3 6 29.77 1008 10 16 N/A
2:55 am 02:55 Cloudy 66 19.1 63 17.2 89 89 NW 8 13 29.78 1008 10 16 N/A
3:15 am 03:15 Partly Cloudy with Nearby Thunderstorms 69 20.8 62 16.8 78 78 NW 6 9 29.76 1008 10 16 N/A
3:35 am 03:35 Clear with Nearby Thunderstorms 68 19.9 63 17 83 83 WNW 3 6 29.76 1008 10 16 N/A
3:55 am 03:55 Mostly Cloudy 68 19.8 63 17 84 84 W 15 24 29.80 1009 7 11 N/A
4:15 am 04:15 Cloudy with Thunderstorms 64 17.7 59 15 84 84 W 6 9 29.77 1008 10 16 0.07 1.78
4:35 am 04:35 Cloudy 65 18.4 59 15 81 81 WSW 6 9 29.77 1008 4 6 0.28 7.11
4:55 am 04:55 Cloudy with Strong Thunderstorms 64 17.8 61 16.1 90 90 N N/A 29.78 1008 4 6 0.62 15.75
5:15 am 05:15 Mostly Cloudy with Thunderstorms 63 17.4 61 15.9 91 91 WNW 3 6 29.77 1008 10 16 N/A
5:35 am 05:35 Partly Cloudy 62 16.9 61 16.1 95 95 SW 6 9 29.77 1008 10 16 N/A
5:55 am 05:55 Clear 62 16.4 60 15.7 96 96 SW 3 6 29.77 1008 10 16 N/A
6:15 am 06:15 Sunny 61 16.3 60 15.7 96 96 SSW 6 9 29.77 1008 10 16 N/A
6:35 am 06:35 Sunny with Mist and Fog 61 16.1 60 15.4 96 96 W 5 7 29.77 1008 7 11 N/A
6:55 am 06:55 Sunny 61 16.2 60 15.8 97 97 N N/A 29.77 1008 10 16 N/A
7:15 am 07:15 Sunny 61 16.3 60 15.7 96 96 N N/A 29.79 1009 10 16 N/A
7:35 am 07:35 Mostly Cloudy 63 17.2 62 16.8 98 98 N N/A 29.79 1009 7 11 N/A
7:55 am 07:55 Mostly Cloudy 64 17.9 62 16.7 93 93 N N/A 29.79 1009 10 16 N/A
8:15 am 08:15 Partly Cloudy 65 18.4 63 17.1 92 92 N N/A 29.79 1009 10 16 N/A
8:35 am 08:35 Partly Cloudy 66 19.1 63 17.4 90 90 N N/A 29.80 1009 10 16 N/A
8:55 am 08:55 Mostly Cloudy 67 19.4 63 17.3 88 88 N N/A 29.80 1009 10 16 N/A
9:15 am 09:15 Sunny 68 20.2 65 18.1 88 88 N N/A 29.79 1009 10 16 N/A
9:35 am 09:35 Sunny 70 21.2 65 18.2 83 83 W 3 6 29.80 1009 10 16 N/A
9:55 am 09:55 Sunny 71 21.8 65 18.6 82 82 WNW 7 11 29.80 1009 10 16 N/A
10:15 am 10:15 Sunny 73 22.6 67 19.2 81 81 NW 6 9 29.80 1009 10 16 N/A
10:35 am 10:35 Sunny 73 23 66 18.8 77 77 NW 10 17 29.80 1009 10 16 N/A
10:55 am 10:55 Sunny 74 23.5 65 18.6 74 74 NW 8 13 29.80 1009 10 16 N/A
11:15 am 11:15 Sunny 75 24 65 18.5 71 71 NNW 9 15 29.81 1009 10 16 N/A
11:35 am 11:35 Sunny 76 24.2 65 18.2 69 69 NW 12 19 29.82 1010 10 16 N/A
11:55 am 11:55 Sunny 76 24.2 64 17.6 67 67 NNW 12 19 29.82 1010 10 16 N/A
12:15 pm 12:15 Sunny 77 24.9 64 18 66 66 NW 9 15 29.82 1010 10 16 N/A
12:35 pm 12:35 Partly Cloudy 77 24.9 63 17.2 62 62 NNW 10 17 29.82 1010 10 16 N/A
12:55 pm 12:55 Partly Cloudy 77 25.1 62 16.9 60 60 NW 13 20 29.82 1010 10 16 N/A
1:15 pm 13:15 Partly Cloudy 76 24.4 63 17 63 63 NNW 10 17 29.83 1010 10 16 N/A
1:35 pm 13:35 Partly Cloudy 76 24.5 61 16.1 60 60 NNW 8 13 29.83 1010 10 16 N/A
1:55 pm 13:55 Partly Cloudy 76 24.5 61 15.9 59 59 NNW 15 24 29.83 1010 10 16 N/A
2:15 pm 14:15 Mostly Cloudy 76 24.2 61 16.1 61 61 NW 10 17 29.85 1011 10 16 N/A
2:35 pm 14:35 Partly Cloudy 76 24.6 61 16.1 59 59 NNW 13 20 29.84 1011 10 16 N/A
2:55 pm 14:55 Mostly Cloudy 76 24.4 61 16.3 61 61 NNW 10 17 29.83 1010 10 16 N/A
3:15 pm 15:15 Partly Cloudy 77 25.2 59 15.1 54 54 WNW 15 24 29.84 1011 10 16 N/A
3:35 pm 15:35 Partly Cloudy 76 24.7 58 14.3 52 52 NNW 13 20 29.84 1011 10 16 N/A
3:55 pm 15:55 Sunny 76 24.6 56 13.1 49 49 NNW 13 20 29.84 1011 10 16 N/A
4:15 pm 16:15 Partly Cloudy 76 24.5 54 12.3 47 47 NNW 13 20 29.84 1011 10 16 N/A
4:35 pm 16:35 Sunny 76 24.5 54 12 46 46 N 10 17 29.84 1011 10 16 N/A
4:55 pm 16:55 Sunny 76 24.5 53 11.6 45 45 NW 12 19 29.85 1011 10 16 N/A
5:15 pm 17:15 Partly Cloudy 76 24.3 53 11.4 44 44 NNW 10 17 29.85 1011 10 16 N/A
5:35 pm 17:35 Sunny 76 24.3 53 11.6 45 45 NW 9 15 29.85 1011 10 16 N/A
5:55 pm 17:55 Sunny 75 23.9 52 11.2 45 45 NNW 13 20 29.87 1011 10 16 N/A
6:15 pm 18:15 Sunny 75 23.7 52 11 45 45 NNW 12 19 29.87 1011 10 16 N/A
6:35 pm 18:35 Partly Cloudy 74 23.5 52 11.3 46 46 NNW 9 15 29.87 1011 10 16 N/A
6:55 pm 18:55 Sunny 74 23.2 54 12.1 50 50 NNW 8 13 29.88 1012 10 16 N/A
7:15 pm 19:15 Partly Cloudy 73 22.5 52 11.3 49 49 NNW 7 11 29.88 1012 10 16 N/A
7:35 pm 19:35 Partly Cloudy 71 21.9 53 11.8 53 53 NW 5 7 29.89 1012 10 16 N/A
7:55 pm 19:55 Partly Cloudy 71 21.9 52 11.3 51 51 NNW 8 13 29.89 1012 10 16 N/A
8:15 pm 20:15 Partly Cloudy 70 21.3 52 11.2 53 53 NNW 6 9 29.90 1013 10 16 N/A
8:35 pm 20:35 Partly Cloudy 69 20.6 52 11.3 55 55 N 9 15 29.90 1013 10 16 N/A
8:55 pm 20:55 Partly Cloudy 68 19.9 52 11 57 57 NNW 7 11 29.91 1013 10 16 N/A
9:15 pm 21:15 Clear 67 19.5 50 10.1 55 55 NNW 8 13 29.93 1013 10 16 N/A
9:35 pm 21:35 Clear 67 19.4 49 9.3 52 52 N 12 19 29.94 1014 10 16 N/A
9:55 pm 21:55 Clear 66 18.7 47 8.3 51 51 N 13 20 29.95 1014 10 16 N/A
10:15 pm 22:15 Clear 65 18.1 45 7.1 49 49 N 9 15 29.97 1015 10 16 N/A
10:35 pm 22:35 Clear 63 17.4 42 5.4 45 45 N 9 15 29.98 1015 10 16 N/A
10:55 pm 22:55 Clear 62 16.9 39 4.1 43 43 N 8 13 29.99 1016 10 16 N/A
11:15 pm 23:15 Clear 61 16.2 39 3.8 44 44 N 9 15 30.00 1016 10 16 N/A
11:35 pm 23:35 Clear 60 15.5 38 3.5 45 45 N 6 9 30.01 1016 10 16 N/A
11:55 pm 23:55 Clear 58 14.5 39 3.7 49 49 N 5 7 30.01 1016 10 16 N/A

Powered by AerisWeather